Вернуться в каталог

STARLINK-31179

АктивенСвязьVLEO
NORAD 58750·PAYLOAD·🇺🇸 United States

Запущен Jan 7, 2024 с Cape Canaveral Space Force Station

Loading…

Ближайшие Пролёты (ближайшие 24 часа)

TLE

СвежийSource: CelesTrak SupGP

Эпоха: Sep 15, 2026, 03:27 UTC

1 58750C 24005Y   26258.14423611 -.00015479  00000+0 -56071-3 0  2588
2 58750  43.0008 230.0321 0001494 265.9987 173.4411 15.27582635    13

Отслеживайте STARLINK-31179 в реальном времени с AllMySat

Download on the App Store